Notices

What's New in latest Release from April 7th, 2021:

- Updated Glossary, including Speed of Maximum Gust, and Total Hourly Precipitation

- Updated national and regional climate services offices contacts and prices information

- Addition of station inventory lists for 1981-2010, 1971-2000, and 1961-1990 Normals.

If you haven't already, please take our survey and provide feedback about our website: https://eccc.sondage-survey.ca/f/LanguageSelection.aspx?s=442ca660-fcf1-47c0-95a9-59707d6fd709

Hourly Data Report for November 15, 2019

SAINT JOHN A
NEW BRUNSWICK
Current Station Operator: NAVCAN

45°18'58.000" N
65°53'24.000" W
108.80 m
8104901
71609
YSJ

Download Data

Hourly Data (November 2019)
Hourly Data Report for November 15, 2019
TIME
LST
Temp Definition
°C
Dew Point Definition
°C
Rel Hum Definition
%
Precip. Amount Definition
mm

Wind Dir Definition
10's deg

Wind Spd Definition
km/h
Visibility Definition
km
Stn Press Definition
kPa
Hmdx Definition


Wind Chill Definition


Weather Definition


00:00 0.5 0.0 97   19 4 4.8 101.33     Rain,Snow
01:00 1.3 1.0 97   18 5 6.4 101.23     Rain,Fog
02:00 2.4 1.4 93   18 14 9.7 101.15     Drizzle,Fog
03:00 3.3 2.1 92   17 25 16.1 101.03     LegendNANA
04:00 3.6 2.3 91   17 28 16.1 100.89     LegendNANA
05:00 3.9 2.5 91   17 26 12.9 100.75     Rain
06:00 4.8 3.3 90   19 26 12.9 100.64     LegendNANA
07:00 3.9 3.0 93   20 30 12.9 100.62     Rain Showers
08:00 3.6 2.9 95   23 13 4.8 100.59     Heavy Rain Showers,Fog
09:00 5.2 4.7 97   21 21 24.1 100.43     Rain Showers
10:00 6.0 5.0 93   21 23 24.1 100.32     LegendNANA
11:00 5.8 4.1 89   23 25 24.1 100.30     Mostly Cloudy
12:00 6.5 2.9 78   22 30 24.1 100.16     LegendNANA
13:00 6.6 2.0 72   23 29 19.3 100.10     LegendNANA
14:00 5.6 1.2 73   24 19 24.1 100.06     Cloudy
15:00 4.1 -0.7 71   27 16 24.1 100.06     LegendNANA
16:00 3.6 -1.6 69   26 12 24.1 100.06     LegendNANA
17:00 3.5 -2.2 66   25 17 24.1 100.06     Mostly Cloudy
18:00 3.5 -2.9 63   25 12 24.1 100.04     LegendNANA
19:00 3.4 -3.5 61   24 13 24.1 100.02     LegendNANA
20:00 4.3 -4.2 54   25 17 24.1 100.02     Mostly Cloudy
21:00 4.2 -3.8 56   24 18 24.1 99.95     LegendNANA
22:00 4.3 -3.3 58   24 21 24.1 99.92     LegendNANA
23:00 4.3 -3.9 55   25 25 24.1 99.93     Mostly Cloudy

Notes on Data Quality.

Legend

  • E = Estimated
  • M = Missing
  • NA = Not Available*
  • [empty] = Indicates an unobserved value
Date modified: